timestamp,surface_pressure_avg,surface_temp_avg,battery_voltage,lat,long
2018-08-18 00:00:00+00:00,227.8298,17.3,13.13,47.84626,-54.09684
2018-08-18 00:10:00+00:00,225.7215,17.3,13.05,47.84626,-54.09684
2018-08-18 00:20:00+00:00,228.5281,17.3,13.05,47.84626,-54.09684
2018-08-18 00:30:00+00:00,233.3248,17.29,13.13,47.84626,-54.09684
2018-08-18 00:40:00+00:00,234.6014,17.29,13.13,47.84626,-54.09684
2018-08-18 00:50:00+00:00,234.4448,17.27,13.13,47.84626,-54.09684
2018-08-18 01:00:00+00:00,237.7448,17.24,13.05,47.84626,-54.09684
2018-08-18 01:10:00+00:00,243.4698,17.22,12.97,47.84626,-54.09684
2018-08-18 01:20:00+00:00,248.2981,17.23,13.05,47.84626,-54.09684
2018-08-18 01:30:00+00:00,251.7047,17.22,13.05,47.84626,-54.09684
2018-08-18 01:40:00+00:00,254.5414,17.2,13.13,47.84626,-54.09684
2018-08-18 01:50:00+00:00,258.5864,17.2,13.13,47.84626,-54.09684
2018-08-18 02:00:00+00:00,263.1531,17.2,13.05,47.84626,-54.09684
2018-08-18 02:10:00+00:00,269.1547,17.2,12.97,47.84626,-54.09684
2018-08-18 02:20:00+00:00,274.7947,17.2,13.05,47.84626,-54.09684
2018-08-18 02:30:00+00:00,280.1664,17.2,13.05,47.84626,-54.09684
2018-08-18 02:40:00+00:00,286.3481,17.2,13.05,47.84626,-54.09684
2018-08-18 02:50:00+00:00,294.768,17.2,13.13,47.84626,-54.09684
2018-08-18 03:00:00+00:00,300.9313,17.2,13.05,47.84626,-54.09684
2018-08-18 03:10:00+00:00,305.8513,17.24,12.97,47.84626,-54.09684
2018-08-18 03:20:00+00:00,310.9481,17.28,13.05,47.84626,-54.09684
2018-08-18 03:30:00+00:00,312.268,17.29,13.05,47.84626,-54.09684
2018-08-18 03:40:00+00:00,311.4897,17.3,13.05,47.84626,-54.09684
2018-08-18 03:50:00+00:00,314.5363,17.3,13.05,47.84626,-54.09684
2018-08-18 04:00:00+00:00,317.9164,17.3,13.05,47.84626,-54.09684
2018-08-18 04:10:00+00:00,315.528,17.3,12.97,47.84626,-54.09684
2018-08-18 04:20:00+00:00,314.0297,17.3,13.05,47.84626,-54.09684
2018-08-18 04:30:00+00:00,316.6863,17.3,13.05,47.84626,-54.09684
2018-08-18 04:40:00+00:00,318.8263,17.3,13.05,47.84626,-54.09684
2018-08-18 04:50:00+00:00,316.4647,17.3,13.05,47.84626,-54.09684
2018-08-18 05:00:00+00:00,317.0114,17.3,13.05,47.84626,-54.09684
2018-08-18 05:10:00+00:00,318.053,17.2,12.97,47.84626,-54.09684
2018-08-18 05:20:00+00:00,315.783,17.24,12.97,47.84626,-54.09684
2018-08-18 05:30:00+00:00,312.3298,17.27,13.05,47.84626,-54.09684
2018-08-18 05:40:00+00:00,313.0096,17.26,13.05,47.84626,-54.09684
2018-08-18 05:50:00+00:00,312.563,17.24,13.05,47.84626,-54.09684
2018-08-18 06:00:00+00:00,308.8513,17.29,12.97,47.84626,-54.09684
2018-08-18 06:10:00+00:00,309.9563,17.3,12.89,47.84626,-54.09684
2018-08-18 06:20:00+00:00,312.593,17.3,12.97,47.84626,-54.09684
2018-08-18 06:30:00+00:00,307.923,17.3,12.97,47.84626,-54.09684
2018-08-18 06:40:00+00:00,303.023,17.3,13.05,47.84626,-54.09684
2018-08-18 06:50:00+00:00,305.0248,17.3,13.05,47.84626,-54.09684
2018-08-18 07:00:00+00:00,301.3713,17.27,12.97,47.84626,-54.09684
2018-08-18 07:10:00+00:00,290.0847,17.23,12.89,47.84626,-54.09684
2018-08-18 07:20:00+00:00,279.813,17.26,12.97,47.84626,-54.09684
2018-08-18 07:30:00+00:00,274.3964,17.25,12.97,47.84626,-54.09684
2018-08-18 07:40:00+00:00,265.8531,17.2,12.97,47.84626,-54.09684
2018-08-18 07:50:00+00:00,257.9148,17.2,12.97,47.84626,-54.09684
2018-08-18 08:00:00+00:00,250.978,17.2,12.97,47.84626,-54.09684
2018-08-18 08:10:00+00:00,244.6581,17.19,12.89,47.84626,-54.09684
2018-08-18 08:20:00+00:00,236.1064,17.19,12.97,47.84626,-54.09684
2018-08-18 08:30:00+00:00,228.8814,17.17,12.97,47.84626,-54.09684
2018-08-18 08:40:00+00:00,223.3631,17.2,12.97,47.84626,-54.09684
2018-08-18 08:50:00+00:00,217.1948,17.2,12.97,47.84626,-54.09684
2018-08-18 09:00:00+00:00,211.7764,17.2,12.89,47.84626,-54.09684
2018-08-18 09:10:00+00:00,208.5814,17.2,12.81,47.84626,-54.09684
2018-08-18 09:20:00+00:00,205.6682,17.19,12.89,47.84626,-54.09684
2018-08-18 09:30:00+00:00,201.5031,17.2,12.97,47.84626,-54.09684
2018-08-18 09:40:00+00:00,200.3665,17.2,12.97,47.84626,-54.09684
2018-08-18 09:50:00+00:00,201.5215,17.2,13.05,47.84626,-54.09684
2018-08-18 10:00:00+00:00,201.3681,17.2,12.97,47.84626,-54.09684
2018-08-18 10:10:00+00:00,202.2231,17.2,12.89,47.84626,-54.09684
2018-08-18 10:20:00+00:00,205.1381,17.19,12.97,47.84626,-54.09684
2018-08-18 10:30:00+00:00,206.6515,17.19,13.05,47.84626,-54.09684
2018-08-18 10:40:00+00:00,206.6698,17.19,13.05,47.84626,-54.09684
2018-08-18 10:50:00+00:00,207.7231,17.18,13.13,47.84626,-54.09684
2018-08-18 11:00:00+00:00,212.9131,17.17,13.21,47.84626,-54.09684
2018-08-18 11:10:00+00:00,217.3832,17.15,13.44,47.84626,-54.09684
2018-08-18 11:20:00+00:00,215.2898,17.17,14.48,47.84626,-54.09684
2018-08-18 11:30:00+00:00,214.9848,17.17,14.32,47.84626,-54.09684
2018-08-18 11:40:00+00:00,221.8381,17.16,14.32,47.84626,-54.09684
2018-08-18 11:50:00+00:00,223.3848,17.15,14.32,47.84626,-54.09684
2018-08-18 12:00:00+00:00,222.5481,17.14,14.0,47.84626,-54.09684
2018-08-18 12:10:00+00:00,226.3314,17.1,13.84,47.84626,-54.09684
2018-08-18 12:20:00+00:00,231.6865,17.1,14.0,47.84626,-54.09684
2018-08-18 12:30:00+00:00,232.1547,17.12,15.91,47.84626,-54.09684
2018-08-18 12:40:00+00:00,232.6148,17.19,15.27,47.84626,-54.09684
2018-08-18 12:50:00+00:00,237.5764,17.2,14.8,47.84626,-54.09684
2018-08-18 13:00:00+00:00,243.8965,17.2,14.48,47.84626,-54.09684
2018-08-18 13:10:00+00:00,247.1348,17.2,14.16,47.84626,-54.09684
2018-08-18 13:20:00+00:00,250.1447,17.23,14.16,47.84626,-54.09684
2018-08-18 13:30:00+00:00,253.1831,17.2,14.16,47.84626,-54.09684
2018-08-18 13:40:00+00:00,256.4897,17.21,14.16,47.84626,-54.09684
2018-08-18 13:50:00+00:00,258.2914,17.25,14.16,47.84626,-54.09684
2018-08-18 14:00:00+00:00,264.2464,17.1,14.24,47.84626,-54.09684
2018-08-18 14:10:00+00:00,268.5197,16.9,14.24,47.84626,-54.09684
2018-08-18 14:20:00+00:00,273.8231,16.9,14.32,47.84626,-54.09684
2018-08-18 14:30:00+00:00,277.0664,16.91,14.48,47.84626,-54.09684
2018-08-18 14:40:00+00:00,285.188,17.0,14.32,47.84626,-54.09684
2018-08-18 14:50:00+00:00,292.758,17.0,14.32,47.84626,-54.09684
2018-08-18 15:00:00+00:00,298.8663,16.98,14.32,47.84626,-54.09684
2018-08-18 15:10:00+00:00,303.7847,16.92,14.16,47.84626,-54.09684
2018-08-18 15:20:00+00:00,309.843,16.9,14.32,47.84626,-54.09684
2018-08-18 15:30:00+00:00,313.1097,16.9,14.24,47.84626,-54.09684
2018-08-18 15:40:00+00:00,316.1313,16.91,14.32,47.84626,-54.09684
2018-08-18 15:50:00+00:00,319.668,16.9,14.48,47.84626,-54.09684
2018-08-18 16:00:00+00:00,322.4813,16.9,14.24,47.84626,-54.09684
2018-08-18 16:10:00+00:00,325.6363,16.9,14.08,47.84626,-54.09684
2018-08-18 16:20:00+00:00,330.3779,16.9,14.16,47.84626,-54.09684
2018-08-18 16:30:00+00:00,333.4447,16.9,14.32,47.84626,-54.09684
2018-08-18 16:40:00+00:00,334.9263,16.9,14.56,47.84626,-54.09684
2018-08-18 16:50:00+00:00,334.948,16.9,14.64,47.84626,-54.09684
2018-08-18 17:00:00+00:00,335.9547,16.9,14.32,47.84626,-54.09684
2018-08-18 17:10:00+00:00,336.7696,16.9,14.32,47.84626,-54.09684
2018-08-18 17:20:00+00:00,338.8913,16.9,14.4,47.84626,-54.09684
2018-08-18 17:30:00+00:00,338.3629,16.91,14.32,47.84626,-54.09684
2018-08-18 17:40:00+00:00,335.333,17.02,14.32,47.84626,-54.09684
2018-08-18 17:50:00+00:00,334.4813,17.1,14.24,47.84626,-54.09684
2018-08-18 18:00:00+00:00,334.0247,17.09,14.16,47.84626,-54.09684
2018-08-18 18:10:00+00:00,334.5913,17.0,14.08,47.84626,-54.09684
2018-08-18 18:20:00+00:00,334.8214,17.06,14.24,47.84626,-54.09684
2018-08-18 18:30:00+00:00,334.558,17.1,14.32,47.84626,-54.09684
2018-08-18 18:40:00+00:00,333.7245,17.18,14.32,47.84626,-54.09684
2018-08-18 18:50:00+00:00,330.7296,17.2,14.32,47.84626,-54.09684
2018-08-18 19:00:00+00:00,327.398,17.26,14.16,47.84626,-54.09684
2018-08-18 19:10:00+00:00,320.8947,17.3,14.0,47.84626,-54.09684
2018-08-18 19:20:00+00:00,317.5746,17.3,14.0,47.84626,-54.09684
2018-08-18 19:30:00+00:00,311.6246,17.33,14.0,47.84626,-54.09684
2018-08-18 19:40:00+00:00,304.4297,17.38,14.0,47.84626,-54.09684
2018-08-18 19:50:00+00:00,298.6664,17.4,14.0,47.84626,-54.09684
2018-08-18 20:00:00+00:00,292.0031,17.4,13.92,47.84626,-54.09684
2018-08-18 20:10:00+00:00,281.573,17.4,13.76,47.84626,-54.09684
2018-08-18 20:20:00+00:00,270.4647,17.45,13.76,47.84626,-54.09684
2018-08-18 20:30:00+00:00,264.6131,17.5,13.84,47.84626,-54.09684
2018-08-18 20:40:00+00:00,258.438,17.56,13.76,47.84626,-54.09684
2018-08-18 20:50:00+00:00,251.4914,17.6,13.76,47.84626,-54.09684
2018-08-18 21:00:00+00:00,244.1197,17.69,13.68,47.84626,-54.09684
2018-08-18 21:10:00+00:00,240.4714,17.7,13.44,47.84626,-54.09684
2018-08-18 21:20:00+00:00,236.1647,17.75,13.44,47.84626,-54.09684
2018-08-18 21:30:00+00:00,232.8981,17.77,13.44,47.84626,-54.09684
2018-08-18 21:40:00+00:00,228.3614,17.78,13.37,47.84626,-54.09684
2018-08-18 21:50:00+00:00,226.2898,17.78,13.37,47.84626,-54.09684
2018-08-18 22:00:00+00:00,227.748,17.76,13.29,47.84626,-54.09684
2018-08-18 22:10:00+00:00,227.4164,17.75,13.21,47.84626,-54.09684
2018-08-18 22:20:00+00:00,223.0414,17.76,13.21,47.84626,-54.09684
2018-08-18 22:30:00+00:00,220.5065,17.76,13.21,47.84626,-54.09684
2018-08-18 22:40:00+00:00,223.4514,17.75,13.21,47.84626,-54.09684
2018-08-18 22:50:00+00:00,223.8564,17.75,13.21,47.84626,-54.09684
2018-08-18 23:00:00+00:00,223.6131,17.74,13.13,47.84626,-54.09684
2018-08-18 23:10:00+00:00,225.3648,17.73,13.05,47.84626,-54.09684
2018-08-18 23:20:00+00:00,226.8781,17.72,13.13,47.84626,-54.09684
2018-08-18 23:30:00+00:00,226.9748,17.71,13.13,47.84626,-54.09684
2018-08-18 23:40:00+00:00,229.7014,17.71,13.13,47.84626,-54.09684
2018-08-18 23:50:00+00:00,231.7298,17.71,13.13,47.84626,-54.09684
